Date String (YYYY-MM-DD hh:mm:ss) UTC,Instrument flags,absolute air pressure of the measurement (hPa),sample flow rate (lpm),inlet stack bypass flow (lpm),air temperature of the measurement (°C),ambient temperature measured by the external sensor (°C),aerosol sample conditioner tube jacket temperature (°C),OPC LED temperature (°C),internal box temperature (°C),relative humidity of the measurement (%),span deviation,mass concentration of particles derived from Lorenz-Mie calculation of OPC scattering (μg/m³),mass concentration of particles derived from Lorenz-Mie calculation of OPC scattering (μg/m³),mass concentration of particles derived from Lorenz-Mie calculation of OPC scattering (μg/m³)
DateTimeUTC,F1_M11,P_M11,Q1_M11,Q2_M11,T1_M11,T2_M11,T3_M11,T4_M11,T5_M11,U1_M11,ZSPAN_M11,X2_M11,X0_M11,X1_M11
2023-09-19 16:00:00,SystemResetWarning,0829.1,5.00,000.00,028.2,027.1,000.0,036.5,029.9,22.5,0000.0,0002.09,0004.14,0001.51
2023-09-19 16:01:00,SystemResetWarning,0829.1,5.00,000.00,028.3,027.2,000.0,036.5,030.0,22.7,0000.0,0002.06,0004.14,0001.51
2023-09-19 16:02:00,SystemResetWarning,0829.1,4.99,000.00,028.3,027.2,000.0,036.6,030.0,22.6,0000.0,0002.11,0004.34,0001.52
2023-09-19 16:03:00,SystemResetWarning,0829.1,5.00,000.00,028.3,027.3,000.0,036.6,030.1,22.4,0000.0,0002.16,0004.50,0001.52
2023-09-19 16:04:00,SystemResetWarning,0829.1,4.99,000.00,028.4,027.1,000.0,036.6,030.1,22.8,0000.0,0002.17,0004.61,0001.52
2023-09-19 16:05:00,SystemResetWarning,0829.0,5.01,000.00,028.3,025.7,000.0,036.6,029.6,22.6,0000.0,0002.20,0004.36,0001.55
2023-09-19 16:06:00,SystemResetWarning,0828.9,5.00,000.00,028.1,024.2,000.0,036.5,029.2,23.1,0000.0,0002.20,0004.12,0001.56
2023-09-19 16:07:00,SystemResetWarning,0829.0,5.01,000.00,028.0,024.1,000.0,036.5,029.2,22.9,0000.0,0002.21,0004.00,0001.57
2023-09-19 16:08:00,SystemResetWarning,0829.0,5.01,000.00,027.9,024.4,000.0,036.4,029.2,23.1,0000.0,0002.21,0003.82,0001.58
2023-09-19 16:09:00,SystemResetWarning,0829.0,5.00,000.00,027.9,024.7,000.0,036.4,029.2,23.2,0000.0,0002.24,0003.86,0001.58
2023-09-19 16:10:00,SystemResetWarning,0829.0,5.00,000.00,027.9,025.1,000.0,036.4,029.2,22.2,0000.0,0002.24,0004.94,0001.58
2023-09-19 16:11:00,SystemResetWarning,0829.1,4.99,000.00,027.9,025.4,000.0,036.4,029.4,23.3,0000.0,0002.22,0005.16,0001.59
2023-09-19 16:12:00,SystemResetWarning,0829.1,4.99,000.00,027.9,025.8,000.0,036.4,029.4,21.6,0000.0,0002.22,0005.15,0001.59
2023-09-19 16:13:00,SystemResetWarning,0829.1,5.00,000.00,027.9,026.0,000.0,036.4,029.5,21.7,0000.0,0002.20,0005.06,0001.60
2023-09-19 16:14:00,SystemResetWarning,0829.1,5.01,000.00,027.9,026.2,000.0,036.4,029.5,22.0,0000.0,0002.15,0004.86,0001.58
2023-09-19 16:15:00,SystemResetWarning,0829.1,5.00,000.00,028.0,026.4,000.0,036.4,029.6,21.8,0000.0,0002.15,0005.56,0001.57
2023-09-19 16:16:00,SystemResetWarning,0829.1,5.01,000.00,028.0,026.6,000.0,036.4,029.7,22.2,0000.0,0002.11,0006.36,0001.55
2023-09-19 16:17:00,SystemResetWarning,0829.1,5.01,000.00,028.0,026.7,000.0,036.4,029.7,21.7,0000.0,0002.13,0006.62,0001.55
2023-09-19 16:18:00,SystemResetWarning,0829.1,4.99,000.00,028.1,026.8,000.0,036.4,029.8,22.4,0000.0,0002.10,0006.59,0001.53
2023-09-19 16:19:00,SystemResetWarning,0829.1,5.00,000.00,028.1,026.9,000.0,036.4,029.8,22.7,0000.0,0002.05,0006.49,0001.52
2023-09-19 16:20:00,SystemResetWarning,0829.1,5.00,000.00,028.1,027.0,000.0,036.4,029.8,23.2,0000.0,0002.01,0006.43,0001.53
2023-09-19 16:21:00,SystemResetWarning,0829.1,5.00,000.00,028.2,027.1,000.0,036.5,029.9,22.7,0000.0,0001.99,0005.72,0001.53
2023-09-19 16:22:00,SystemResetWarning,0829.1,5.00,000.00,028.2,027.2,000.0,036.5,029.9,23.3,0000.0,0001.99,0005.23,0001.53
2023-09-19 16:23:00,SystemResetWarning,0829.2,5.00,000.00,028.2,027.2,000.0,036.5,030.0,23.3,0000.0,0002.01,0006.21,0001.52
2023-09-19 16:24:00,SystemResetWarning,0829.1,5.00,000.00,028.3,027.3,000.0,036.5,030.0,22.4,0000.0,0001.99,0006.24,0001.52
2023-09-19 16:25:00,SystemResetWarning,0829.1,5.01,000.00,028.3,027.3,000.0,036.6,030.1,20.3,0000.0,0002.01,0006.35,0001.52
2023-09-19 16:26:00,SystemResetWarning,0829.1,4.99,000.00,028.3,026.4,000.0,036.6,029.8,20.3,0000.0,0002.03,0006.00,0001.53
2023-09-19 16:27:00,SystemResetWarning,0829.1,4.98,000.00,028.2,024.8,000.0,036.5,029.4,20.9,0000.0,0002.07,0005.13,0001.55
2023-09-19 16:28:00,SystemResetWarning,0829.1,5.02,000.00,028.1,024.4,000.0,036.4,029.3,22.2,0000.0,0002.01,0005.18,0001.55
2023-09-19 16:29:00,SystemResetWarning,0829.0,5.00,000.00,028.0,024.6,000.0,036.4,029.3,22.1,0000.0,0002.01,0005.85,0001.55
2023-09-19 16:30:00,SystemResetWarning,0829.1,4.99,000.00,027.9,024.9,000.0,036.4,029.2,22.3,0000.0,0002.02,0005.86,0001.55
2023-09-19 16:31:00,SystemResetWarning,0829.1,5.00,000.00,027.9,025.3,000.0,036.4,029.3,22.1,0000.0,0002.01,0005.82,0001.55
2023-09-19 16:32:00,SystemResetWarning,0829.1,5.02,000.00,027.9,025.6,000.0,036.4,029.4,21.2,0000.0,0002.01,0005.70,0001.55
2023-09-19 16:33:00,SystemResetWarning,0829.1,5.00,000.00,027.9,025.9,000.0,036.4,029.4,21.0,0000.0,0002.03,0005.60,0001.54
2023-09-19 16:34:00,SystemResetWarning,0829.1,4.99,000.00,028.0,026.2,000.0,036.4,029.5,21.0,0000.0,0001.99,0004.57,0001.55
2023-09-19 16:35:00,SystemResetWarning,0829.1,5.00,000.00,028.0,026.4,000.0,036.4,029.6,20.6,0000.0,0002.00,0004.43,0001.55
2023-09-19 16:36:00,SystemResetWarning,0829.1,5.00,000.00,028.0,026.6,000.0,036.4,029.6,20.5,0000.0,0002.02,0004.54,0001.57
2023-09-19 16:37:00,SystemResetWarning,0829.1,5.00,000.00,028.1,026.7,000.0,036.4,029.7,20.1,0000.0,0002.00,0004.17,0001.57
2023-09-19 16:38:00,SystemResetWarning,0829.1,5.01,000.00,028.1,026.8,000.0,036.4,029.7,19.8,0000.0,0001.99,0004.18,0001.56
2023-09-19 16:39:00,SystemResetWarning,0829.1,5.00,000.00,028.1,027.0,000.0,036.4,029.8,20.1,0000.0,0002.00,0004.03,0001.56
2023-09-19 16:40:00,SystemResetWarning,0829.1,5.00,000.00,028.2,027.1,000.0,036.5,029.8,20.2,0000.0,0002.03,0004.27,0001.56
2023-09-19 16:41:00,SystemResetWarning,0829.1,5.00,000.00,028.2,027.2,000.0,036.5,029.9,20.2,0000.0,0002.05,0004.33,0001.57
2023-09-19 16:42:00,SystemResetWarning,0829.1,4.99,000.00,028.2,027.2,000.0,036.5,029.9,20.5,0000.0,0002.07,0004.41,0001.57
2023-09-19 16:43:00,SystemResetWarning,0829.1,5.00,000.00,028.3,027.1,000.0,036.5,029.9,20.2,0000.0,0002.09,0004.52,0001.57
2023-09-19 16:44:00,SystemResetWarning,0829.1,5.00,000.00,028.2,025.6,000.0,036.5,029.5,20.6,0000.0,0002.07,0004.45,0001.58
2023-09-19 16:45:00,SystemResetWarning,0829.1,5.00,000.00,028.1,024.4,000.0,036.4,029.2,20.7,0000.0,0002.11,0004.59,0001.59
2023-09-19 16:46:00,SystemResetWarning,0829.0,5.01,000.00,028.0,024.4,000.0,036.4,029.3,21.1,0000.0,0002.13,0004.90,0001.59
2023-09-19 16:47:00,SystemResetWarning,0829.0,5.02,000.00,027.9,024.6,000.0,036.4,029.2,21.3,0000.0,0002.14,0005.01,0001.58
2023-09-19 16:48:00,SystemResetWarning,0829.0,4.99,000.00,027.9,025.0,000.0,036.4,029.2,20.6,0000.0,0002.14,0005.91,0001.57
2023-09-19 16:49:00,SystemResetWarning,0829.0,5.00,000.00,027.9,025.4,000.0,036.3,029.3,21.0,0000.0,0002.15,0005.87,0001.58
2023-09-19 16:50:00,SystemResetWarning,0829.0,5.00,000.00,027.9,025.7,000.0,036.3,029.3,20.6,0000.0,0002.17,0005.95,0001.58
2023-09-19 16:51:00,SystemResetWarning,0829.1,5.00,000.00,027.9,026.0,000.0,036.3,029.4,20.4,0000.0,0002.19,0005.36,0001.59
2023-09-19 16:52:00,SystemResetWarning,0829.1,4.99,000.00,027.9,026.2,000.0,036.3,029.5,21.4,0000.0,0002.22,0005.14,0001.60
2023-09-19 16:53:00,SystemResetWarning,0829.1,5.01,000.00,028.0,026.4,000.0,036.3,029.5,21.1,0000.0,0002.20,0005.16,0001.59
2023-09-19 16:54:00,SystemResetWarning,0829.0,5.02,000.00,028.0,026.6,000.0,036.3,029.6,21.3,0000.0,0002.19,0005.08,0001.59
2023-09-19 16:55:00,SystemResetWarning,0829.0,5.00,000.00,028.1,026.8,000.0,036.4,029.7,21.1,0000.0,0002.16,0005.03,0001.58
2023-09-19 16:56:00,SystemResetWarning,0829.0,5.00,000.00,028.1,026.9,000.0,036.4,029.7,21.3,0000.0,0002.13,0004.98,0001.56
2023-09-19 16:57:00,SystemResetWarning,0829.1,4.99,000.00,028.1,027.0,000.0,036.4,029.8,21.0,0000.0,0002.09,0004.68,0001.55
2023-09-19 16:58:00,SystemResetWarning,0829.1,5.00,000.00,028.2,027.1,000.0,036.4,029.8,19.9,0000.0,0002.06,0005.96,0001.56
2023-09-19 16:59:00,SystemResetWarning,0829.1,5.00,000.00,028.2,027.2,000.0,036.4,029.9,19.7,0000.0,0002.02,0005.32,0001.54
